[[{"header":{"parameterUnit":"m.s-1","parameterCategory":1,"la1":30.2991,"la2":30.254,"lo1":-89.0895,"lo2":-89.0444,"dy":0.0017,"dx":0.0017,"nx":28,"ny":28,"refTime":"2023-05-23T21:00:00:Z","depth":0,"parameterNumber":2,"parameterNumberName":"U-component_of_WINDS"},"data":[0,0,0,0,0,0,0,0,0,0,0,0,0,0,0,0,0,0,0,0,0,0,0,0,0,0,0,0,0,0,0,0,0,0,0,0,0,0,0,0,0,0,0,0,0,0,0,0,0,0,0,0,0,0,0,0,0,0,-1.2041,-1.2042,0,-1.2092,-1.2092,-1.2093,-1.2047,-1.2045,-1.2043,-1.2041,-1.2101,-1.2105,-1.2108,0,0,0,0,0,0,0,0,0,0,0,0,0,-1.1912,-1.1915,-1.2041,-1.2042,-1.2042,-1.2092,-1.2092,-1.2093,-1.2047,-1.2045,-1.2043,-1.204,-1.21,-1.2104,-1.2108,0,0,0,0,0,0,0,0,0,0,0,0,0,-1.1967,-1.1916,-1.2041,-1.2025,-1.2024,-1.2092,-1.2093,-1.2093,-1.2048,-1.2045,-1.2042,-1.2039,-1.2099,-1.2104,-1.2109,-1.2197,0,0,-1.2124,-1.2127,0,0,0,0,0,0,0,0,-1.1964,-1.1971,-1.2027,-1.2026,-1.2025,-1.206,-1.2069,-1.2129,-1.2048,-1.2039,-1.2041,-1.2038,-1.2091,-1.2096,-1.2112,-1.22,-1.2203,-1.2125,-1.2128,-1.213,-1.2132,0,0,0,0,0,0,0,-1.196,-1.1969,-1.2061,-1.2028,-1.2027,-1.2018,-1.2023,-1.208,-1.2081,-1.204,-1.2036,-1.2043,-1.209,-1.2107,-1.2113,-1.2203,-1.2125,-1.2129,-1.2132,-1.2134,-1.2369,-1.2372,0,0,0,0,0,0,-1.1957,-1.1966,-1.206,-1.2063,-1.1987,-1.2023,-1.2028,-1.2052,-1.208,-1.2081,-1.2045,-1.204,-1.21,-1.2107,-1.2115,-1.2222,-1.213,-1.2135,-1.2138,-1.2366,-1.2369,-1.2373,0,0,0,0,0,0,-1.1954,-1.1965,-1.2058,-1.2014,-1.2025,-1.2028,-1.2055,-1.2054,-1.2072,-1.2083,-1.2084,-1.2062,-1.2098,-1.2108,-1.2177,-1.2223,-1.2137,-1.2142,-1.2362,-1.2367,-1.2371,-1.2436,0,0,0,0,0,0,-1.1951,-1.1965,-1.1996,-1.2015,-1.2027,-1.2117,-1.2058,-1.2057,-1.208,-1.2074,-1.21,-1.2102,-1.2097,-1.217,-1.2182,-1.2229,-1.2146,-1.2358,-1.2364,-1.237,-1.2429,-1.2442,-1.2453,0,0,0,0,0,-1.1946,-1.2014,-1.1998,-1.201,-1.2066,-1.2119,-1.2127,-1.2117,-1.2084,-1.2117,-1.2125,-1.2101,-1.2216,-1.2177,-1.2191,-1.224,-1.2355,-1.2362,-1.2369,-1.2424,-1.2439,-1.2452,0,0,0,0,0,0,-1.2004,-1.2016,-1.1999,-1.2074,-1.2096,-1.2111,-1.2153,-1.2133,-1.2167,-1.2161,-1.215,-1.2156,-1.2229,-1.2241,-1.2198,-1.2328,-1.228,-1.2291,-1.2318,-1.2332,-1.2344,-1.2341,-1.215,0,0,0,0,0,-1.2025,-1.2064,-1.2073,-1.2139,-1.215,-1.215,-1.2173,-1.2163,-1.2186,-1.2196,-1.2209,-1.2234,-1.2276,-1.2305,-1.2344,-1.243,-1.2437,-1.2471,-1.2482,-1.2492,-1.2502,-1.2551,-1.2567,-1.2397,-1.2396,-1.2396,0,0,-1.207,-1.2081,-1.2107,-1.2151,-1.2167,-1.2211,-1.2158,-1.2206,-1.224,-1.2204,-1.227,-1.228,-1.2308,-1.2387,-1.2422,-1.2399,-1.255,-1.2501,-1.2508,-1.2513,-1.256,-1.2576,-1.2591,-1.2401,-1.24,-1.24,0,0,-1.2174,-1.2185,-1.2242,-1.2258,-1.2282,-1.2281,-1.2294,-1.2313,-1.2318,-1.2383,-1.2358,-1.2398,-1.247,-1.2492,-1.2512,-1.2625,-1.2606,-1.2638,-1.2701,-1.2749,-1.2762,-1.2774,-1.2817,-1.2832,-1.2648,-1.2648,-1.2648,0,-1.2228,-1.229,-1.2274,-1.2324,-1.2346,-1.2312,-1.2372,-1.2389,-1.2425,-1.2442,-1.2415,-1.2505,-1.2522,-1.2606,-1.2633,-1.265,-1.2668,-1.2636,-1.2761,-1.2773,-1.2784,-1.2825,-1.2841,-1.2652,-1.2651,-1.2651,-1.265,0,-1.2356,-1.24,-1.2443,-1.2476,-1.2502,-1.2557,-1.2552,-1.2581,-1.2569,-1.2572,-1.264,-1.2658,-1.2702,-1.272,-1.271,-1.2804,-1.2789,-1.2761,-1.2714,-1.2804,-1.2843,-1.2858,-1.2657,-1.2656,-1.2655,-1.2654,0,0,-1.25,-1.2523,-1.2539,-1.2555,-1.2578,-1.2613,-1.2667,-1.2706,-1.2733,-1.2759,-1.2806,-1.2868,-1.2842,-1.2865,-1.2857,-1.2899,-1.2991,-1.2867,-1.2867,-1.2892,-1.3099,-1.3122,-1.314,-1.2977,-1.298,-1.2982,-1.3098,0,-1.2607,-1.2697,-1.2685,-1.2774,-1.2816,-1.2785,-1.2832,-1.2854,-1.2858,-1.2896,-1.2902,-1.2947,-1.2908,-1.2922,-1.2962,-1.2971,-1.3033,-1.2962,-1.3025,-1.3027,-1.3021,-1.316,-1.3184,-1.3292,-1.3112,-1.3115,-1.3116,0,-1.2744,-1.2773,-1.2865,-1.2883,-1.29,-1.2942,-1.2979,-1.3014,-1.3039,-1.3039,-1.3065,-1.305,-1.3107,-1.3057,-1.3138,-1.309,-1.3115,-1.3123,-1.3127,-1.3135,-1.3079,-1.3174,-1.3326,-1.3343,-1.314,-1.3138,-1.3136,0,-1.2843,-1.2905,-1.2968,-1.2982,-1.3004,-1.3035,-1.3046,-1.3067,-1.3092,-1.3125,-1.3141,-1.3181,-1.3204,-1.3236,-1.3233,-1.3196,-1.3317,-1.3265,-1.3322,-1.3322,-1.3351,-1.335,-1.3512,-1.3362,-1.3362,-1.3362,-1.3361,0,-1.2965,-1.3024,-1.3013,-1.3053,-1.3118,-1.3104,-1.317,-1.3178,-1.3197,-1.324,-1.3216,-1.3257,-1.3249,-1.3292,-1.329,-1.3359,-1.3369,-1.3374,-1.3373,-1.3377,-1.3377,-1.3396,-1.3389,-1.3366,-1.3365,-1.3364,-1.3363,0,-1.3088,-1.3082,-1.315,-1.3165,-1.317,-1.3218,-1.3232,-1.3271,-1.3272,-1.3327,-1.3339,-1.3343,-1.3391,-1.3391,-1.3447,-1.3446,-1.3531,-1.3521,-1.3523,-1.3522,-1.3579,-1.3575,-1.3761,-1.3786,-1.3618,-1.3619,-1.3621,0,-1.3167,-1.3211,-1.323,-1.3255,-1.3268,-1.331,-1.3334,-1.3323,-1.335,-1.3382,-1.3418,-1.3463,-1.3499,-1.3579,-1.3589,-1.3633,-1.3625,-1.3687,-1.3632,-1.3635,-1.363,-1.3628,-1.3634,-1.3699,-1.3701,-1.3702,-1.3704,0,-1.331,-1.3306,-1.3341,-1.3376,-1.3406,-1.3433,-1.3459,-1.3482,-1.3473,-1.3506,-1.3554,-1.3582,-1.3638,-1.3685,-1.3727,-1.3741,-1.3723,-1.372,-1.3737,-1.3743,-1.3743,-1.3747,-1.3556,-1.3717,-1.3716,-1.3715,-1.3714,-1.3714,-1.3416,-1.3454,-1.3474,-1.3514,-1.3531,-1.3556,-1.3593,-1.3599,-1.3638,-1.3681,-1.3672,-1.3727,-1.3752,-1.3806,-1.3824,-1.3869,-1.3848,-1.387,-1.3877,-1.3883,-1.3891,-1.3733,-1.3876,-1.3876,-1.3876,-1.3875,-1.3875,0,-1.356,-1.3571,-1.3608,-1.3643,-1.3676,-1.3651,-1.3678,-1.3709,-1.3756,-1.378,-1.3815,-1.3872,-1.3917,-1.393,-1.3975,-1.4009,-1.4002,-1.4021,-1.4021,-1.4025,-1.3906,-1.3889,-1.4026,-1.4026,-1.4026,-1.4026,-1.4026,-1.4026,-1.3639,-1.3704,-1.3701,-1.3775,-1.3786,-1.3837,-1.3855,-1.3878,-1.3897,-1.396,-1.3997,-1.4004,-1.4025,-1.4071,-1.4113,-1.4115,-1.4135,-1.4159,-1.4159,-1.4048,-1.4033,-1.4019,-1.4003,-1.4162,-1.4162,-1.4275,-1.4276,-1.4276]},{"header":{"parameterUnit":"m.s-1","parameterCategory":1,"la1":30.2991,"la2":30.254,"lo1":-89.0895,"lo2":-89.0444,"dy":0.0017,"dx":0.0017,"nx":28,"ny":28,"refTime":"2023-05-23T21:00:00:Z","depth":0,"parameterNumber":3,"parameterNumberName":"V-component_of_WINDS"},"data":[0,0,0,0,0,0,0,0,0,0,0,0,0,0,0,0,0,0,0,0,0,0,0,0,0,0,0,0,0,0,0,0,0,0,0,0,0,0,0,0,0,0,0,0,0,0,0,0,0,0,0,0,0,0,0,0,0,0,-1.4855,-1.4854,0,-1.4749,-1.4748,-1.4747,-1.4681,-1.468,-1.468,-1.4679,-1.457,-1.4568,-1.4565,0,0,0,0,0,0,0,0,0,0,0,0,0,-1.4999,-1.4996,-1.4855,-1.4853,-1.4852,-1.475,-1.4748,-1.4747,-1.4681,-1.468,-1.468,-1.4679,-1.4571,-1.4568,-1.4565,0,0,0,0,0,0,0,0,0,0,0,0,0,-1.4919,-1.4996,-1.4855,-1.4807,-1.4801,-1.475,-1.4748,-1.4746,-1.4681,-1.468,-1.468,-1.4679,-1.4572,-1.4568,-1.4565,-1.4552,0,0,-1.4553,-1.4551,0,0,0,0,0,0,0,0,-1.4924,-1.4914,-1.4815,-1.481,-1.4804,-1.4728,-1.4759,-1.4681,-1.4681,-1.4727,-1.4679,-1.4679,-1.4623,-1.4615,-1.4596,-1.4547,-1.4542,-1.4553,-1.455,-1.4549,-1.4547,0,0,0,0,0,0,0,-1.4929,-1.4918,-1.4813,-1.4814,-1.4807,-1.4791,-1.4779,-1.4744,-1.4679,-1.4723,-1.4717,-1.4706,-1.462,-1.46,-1.4593,-1.4541,-1.4553,-1.4549,-1.4547,-1.4545,-1.4479,-1.4479,0,0,0,0,0,0,-1.4943,-1.4923,-1.4816,-1.481,-1.4864,-1.4788,-1.4775,-1.4753,-1.4679,-1.4668,-1.4707,-1.4703,-1.4607,-1.4598,-1.4589,-1.4572,-1.4549,-1.4545,-1.4543,-1.4478,-1.4479,-1.4479,0,0,0,0,0,0,-1.4946,-1.4934,-1.4821,-1.4865,-1.4849,-1.4787,-1.4762,-1.4751,-1.4731,-1.4667,-1.4655,-1.4699,-1.4606,-1.4595,-1.4563,-1.4567,-1.4543,-1.454,-1.4478,-1.4478,-1.4479,-1.4536,0,0,0,0,0,0,-1.495,-1.4935,-1.493,-1.4865,-1.4847,-1.4796,-1.4762,-1.4749,-1.4725,-1.472,-1.4657,-1.4646,-1.4605,-1.4569,-1.4559,-1.4561,-1.4537,-1.4477,-1.4478,-1.4479,-1.4533,-1.4538,-1.4543,0,0,0,0,0,-1.4956,-1.4949,-1.493,-1.4917,-1.4839,-1.4796,-1.4786,-1.4739,-1.4726,-1.472,-1.4679,-1.4648,-1.4568,-1.4566,-1.4554,-1.4556,-1.4476,-1.4478,-1.4479,-1.4531,-1.4537,-1.4543,0,0,0,0,0,0,-1.5014,-1.4939,-1.4917,-1.4889,-1.485,-1.4785,-1.4776,-1.4747,-1.471,-1.4707,-1.465,-1.4637,-1.4611,-1.458,-1.4579,-1.4541,-1.4519,-1.4518,-1.4562,-1.4568,-1.4573,-1.4581,-1.4534,0,0,0,0,0,-1.5024,-1.4995,-1.4931,-1.4913,-1.4895,-1.4839,-1.4818,-1.4787,-1.4743,-1.4726,-1.4682,-1.4641,-1.4607,-1.4585,-1.455,-1.4528,-1.4515,-1.4524,-1.4528,-1.4533,-1.4533,-1.4521,-1.4525,-1.4483,-1.4483,-1.4483,0,0,-1.5043,-1.4999,-1.4984,-1.4924,-1.4889,-1.4862,-1.4825,-1.4797,-1.4776,-1.4721,-1.4689,-1.4656,-1.4606,-1.458,-1.4566,-1.4553,-1.4541,-1.4534,-1.4538,-1.4535,-1.4523,-1.4527,-1.453,-1.4484,-1.4484,-1.4484,0,0,-1.5065,-1.5028,-1.501,-1.4977,-1.4926,-1.4889,-1.4885,-1.4825,-1.4802,-1.4768,-1.4728,-1.4702,-1.4643,-1.4611,-1.4586,-1.4599,-1.4569,-1.4589,-1.4614,-1.4603,-1.4607,-1.4609,-1.4616,-1.4618,-1.4589,-1.4589,-1.4589,0,-1.5095,-1.5052,-1.5004,-1.4979,-1.4954,-1.4905,-1.4887,-1.4857,-1.4796,-1.4781,-1.4767,-1.4695,-1.4658,-1.4624,-1.4628,-1.4609,-1.4603,-1.4596,-1.461,-1.4612,-1.4614,-1.4619,-1.4622,-1.4592,-1.4591,-1.4591,-1.4591,0,-1.5093,-1.5064,-1.5056,-1.5001,-1.4975,-1.4953,-1.4903,-1.4882,-1.4854,-1.4819,-1.4787,-1.4741,-1.4697,-1.4686,-1.4657,-1.4649,-1.4643,-1.4621,-1.4597,-1.4622,-1.4626,-1.4627,-1.4596,-1.4595,-1.4594,-1.4593,0,0,-1.5147,-1.5068,-1.5066,-1.5041,-1.4983,-1.4959,-1.4936,-1.4894,-1.4879,-1.4839,-1.482,-1.4773,-1.4752,-1.4725,-1.4691,-1.4682,-1.4698,-1.466,-1.4659,-1.4671,-1.4689,-1.4708,-1.4711,-1.4677,-1.4678,-1.4678,-1.4694,0,-1.5161,-1.5118,-1.5076,-1.5048,-1.5021,-1.4975,-1.4956,-1.4918,-1.4885,-1.4858,-1.4822,-1.4791,-1.4765,-1.4748,-1.4737,-1.4698,-1.4701,-1.4696,-1.4659,-1.4659,-1.4675,-1.4712,-1.4731,-1.4748,-1.4695,-1.4695,-1.4695,0,-1.5171,-1.5137,-1.5107,-1.5053,-1.504,-1.5024,-1.4983,-1.4957,-1.4914,-1.4891,-1.4862,-1.4828,-1.4802,-1.4782,-1.4746,-1.4744,-1.4727,-1.4706,-1.4705,-1.4701,-1.4679,-1.4711,-1.4752,-1.4756,-1.4697,-1.4697,-1.4697,0,-1.5216,-1.5161,-1.5137,-1.5117,-1.5054,-1.5043,-1.5016,-1.4972,-1.4951,-1.4915,-1.4901,-1.4863,-1.4842,-1.4813,-1.477,-1.4758,-1.474,-1.4715,-1.4721,-1.4722,-1.472,-1.4721,-1.4761,-1.4706,-1.4706,-1.4706,-1.4706,0,-1.5237,-1.5221,-1.5157,-1.5142,-1.5124,-1.5075,-1.5058,-1.5027,-1.4989,-1.4968,-1.4925,-1.4906,-1.4848,-1.4823,-1.4788,-1.4766,-1.4756,-1.4738,-1.4729,-1.4742,-1.4745,-1.4731,-1.4729,-1.4707,-1.4707,-1.4707,-1.4706,0,-1.5284,-1.524,-1.5211,-1.5154,-1.514,-1.5129,-1.508,-1.5064,-1.503,-1.5004,-1.4995,-1.4942,-1.491,-1.4863,-1.4817,-1.4794,-1.4777,-1.4762,-1.4792,-1.4787,-1.4797,-1.4797,-1.4831,-1.4833,-1.4776,-1.4776,-1.4777,0,-1.5301,-1.5288,-1.523,-1.5214,-1.5189,-1.5162,-1.5141,-1.5093,-1.5072,-1.5024,-1.5015,-1.498,-1.4949,-1.49,-1.4857,-1.4822,-1.4807,-1.4821,-1.4801,-1.4816,-1.4809,-1.4811,-1.4811,-1.4826,-1.4827,-1.4828,-1.4828,0,-1.5336,-1.5315,-1.5286,-1.5251,-1.5227,-1.5196,-1.5163,-1.5152,-1.5097,-1.5077,-1.5044,-1.5021,-1.4975,-1.4941,-1.4901,-1.4873,-1.4842,-1.4835,-1.4835,-1.4849,-1.4868,-1.486,-1.4807,-1.4834,-1.4834,-1.4833,-1.4833,-1.4833,-1.5369,-1.5356,-1.5315,-1.5285,-1.5256,-1.5227,-1.5211,-1.5176,-1.5148,-1.5108,-1.5081,-1.5051,-1.501,-1.4953,-1.4927,-1.4903,-1.4889,-1.4889,-1.4889,-1.489,-1.4896,-1.4871,-1.4895,-1.4894,-1.4894,-1.4894,-1.4894,0,-1.5403,-1.5375,-1.5348,-1.5305,-1.5282,-1.5256,-1.5219,-1.5202,-1.5176,-1.5141,-1.5113,-1.5077,-1.5045,-1.5001,-1.4965,-1.4955,-1.494,-1.4947,-1.4948,-1.4943,-1.4908,-1.4913,-1.496,-1.496,-1.496,-1.496,-1.496,-1.496,-1.5418,-1.5397,-1.5373,-1.5337,-1.5308,-1.528,-1.5261,-1.5235,-1.5207,-1.517,-1.5143,-1.5115,-1.5077,-1.5039,-1.5009,-1.4996,-1.4986,-1.4999,-1.4982,-1.4951,-1.4945,-1.4939,-1.4943,-1.4996,-1.4996,-1.5019,-1.5019,-1.502]}]]